Weather in Tiganovo

Russia / Bryansk Oblast     53°12′01″N   34°12′58″E
temp.,
°C
wind,
m/s
gust,
m/s
humid.,
%
clouds,
%
prec.,
mm/h
press.,
hPa
HPBL,
m
7 july, thu
thu700:00+20sse377522 0.0 1011114
03:00+18sse228354 0.0 101129
06:00+18ssw268927 0.0 1011171
09:00+22w347924 0.1 1012511
12:00+25w556533 0.0 10131127
15:00+25w446174 0.0 10131009
18:00+22wnw45675 0.1 1015859
21:00+17nnw378378 0.1 1016207
8 july, fri
fri800:00+15nw239298 0.0 101757
03:00+14nnw369687 0.0 1017131
06:00+15n249142 0.0 1018134
09:00+20n33705 0.0 1018713
12:00+23nnw225648 0.0 10171388
15:00+24wnw3356100 0.0 10171121
18:00+24nnw225691 0.0 1016884
21:00+17n358731 0.7 101668
9 july, sat
sat900:00+15n379397 0.9 1016133
03:00+15n35945 2.3 101699
06:00+15nne2593100 0.0 1016132
09:00+18se2283100 0.6 1015298
12:00+20ene117796 0.4 1014335
15:00+20s5678100 0.7 1013459
18:00+20w2279100 1.3 1011169
21:00+17e118995 1.3 101211
10 july, sun
sun1000:00+15ene1190100 0.0 101111
03:00+15ne1194100 0.9 101011
06:00+15nw119781 3.3 101031
09:00+19e2388100 3.4 1009347
12:00+24se3461100 0.0 10081050
15:00+24ese3467100 2.6 1007631
18:00+23ne117594 4.4 100761
21:00+18ese1294100 15.0 100757
11 july, mon
mon1100:00+17ne119780 3.8 100733
03:00+15e2297100 3.8 100725
06:00+16e1296100 0.6 100670
09:00+16nne2599100 6.8 1004263
12:00+17se71395100 6.1 1003815
15:00+21s4683100 6.9 1003749
18:00+18w3492100 5.2 1002319
21:00+15w41096100 10.4 1005474